Pittsburgh Allegheny Co., PA

5:38 PM EDT on October 21, 2017 (GMT -0400)
Allegheny County

Weather History for KAGC - March, 2012

Change the Weather History Date:

Saturday, March 3, 2012

  Actual Average Record
Temperature  
Mean Temperature 43 °F -  
Max Temperature 54 °F 49 °F 75 °F (1991)
Min Temperature 32 °F 32 °F 3 °F (2003)
Degree Days  
Heating Degree Days 22    
Moisture  
Dew Point 26 °F    
Average Humidity 58    
Maximum Humidity 83    
Minimum Humidity 45    
Precipitation  
Precipitation 0.00 in - - ()
Sea Level Pressure  
Sea Level Pressure 29.67 in    
Wind  
Wind Speed 17 mph (WSW)    
Max Wind Speed 25 mph    
Max Gust Speed 36 mph    
Visibility 10 miles    
Events      
Averages and records for this station are not official NWS values.
T = Trace of Precipitation, MM = Missing Value Source: NWS Daily Summary

Daily Weather History Graph

Daily Weather History Graph

Search for Another Location

Airport or City:

Trip Planner

Search our weather history database for the weather conditions in past years. The results will help you decide how hot, cold, wet, or windy it might be!

Date:

Astronomy

Mar. 03, 2012 Rise Set
Actual Time 6:49 AM EST 6:14 PM EST
Civil Twilight 6:22 AM EST 6:41 PM EST
Nautical Twilight 5:50 AM EST 7:12 PM EST
Astronomical Twilight 5:19 AM EST 7:44 PM EST
Moon 1:21 PM EST (3/3) 3:26 AM EST (3/3)
Length of Visible Light 12h 19m
Length of Day
11h 24m
Waxing Gibbous, 75% of the Moon is Illuminated
Mar 3
Waxing Gibbous
Mar 8
Full
Mar 14
Last Quarter
Mar 22
New
Mar 30
First Quarter

Hourly Weather History & Observations

Time (EST) Temp. Windchill Dew Point Humidity Pressure Visibility Wind Dir Wind Speed Gust Speed Precip Events Conditions
12:53 AM 54.0 °F - 48.9 °F 83% 29.47 in 10.0 mi SSW 11.5 mph - N/A   Clear
1:53 AM 53.1 °F - 41.0 °F 64% 29.48 in 10.0 mi WSW 20.7 mph 25.3 mph N/A   Clear
2:53 AM 46.9 °F - 36.0 °F 66% 29.52 in 10.0 mi West 24.2 mph 33.4 mph N/A   Scattered Clouds
3:53 AM 43.0 °F 35.1 °F 33.1 °F 68% 29.56 in 10.0 mi West 17.3 mph 26.5 mph N/A   Overcast
4:53 AM 41.0 °F 30.9 °F 28.9 °F 62% 29.60 in 10.0 mi West 24.2 mph 34.5 mph N/A   Overcast
5:53 AM 39.0 °F 30.6 °F 28.0 °F 65% 29.65 in 10.0 mi SW 15.0 mph 25.3 mph N/A   Mostly Cloudy
6:53 AM 37.0 °F 27.7 °F 26.1 °F 65% 29.67 in 10.0 mi WSW 16.1 mph 26.5 mph N/A   Clear
7:36 AM 37.4 °F 26.6 °F 26.6 °F 65% 29.65 in 10.0 mi WSW 21.9 mph 32.2 mph N/A   Mostly Cloudy
7:53 AM 36.0 °F 25.3 °F 25.0 °F 64% 29.68 in 10.0 mi SW 19.6 mph 28.8 mph N/A   Mostly Cloudy
8:19 AM 35.6 °F 26.6 °F 24.8 °F 65% 29.65 in 10.0 mi WSW 13.8 mph 26.5 mph N/A   Scattered Clouds
8:53 AM 37.9 °F 27.9 °F 25.0 °F 60% 29.67 in 10.0 mi WSW 19.6 mph 32.2 mph N/A   Partly Cloudy
9:53 AM 39.9 °F 29.7 °F 24.1 °F 53% 29.66 in 10.0 mi WSW 23.0 mph 29.9 mph N/A   Clear
10:53 AM 39.9 °F 30.0 °F 25.0 °F 55% 29.68 in 10.0 mi WSW 21.9 mph 31.1 mph N/A   Partly Cloudy
11:53 AM 42.1 °F 32.1 °F 24.1 °F 49% 29.68 in 10.0 mi WSW 25.3 mph 35.7 mph N/A   Clear
12:53 PM 41.0 °F 32.8 °F 23.0 °F 49% 29.66 in 10.0 mi West 16.1 mph 28.8 mph N/A   Mostly Cloudy
1:53 PM 43.0 °F 34.0 °F 23.0 °F 45% 29.66 in 10.0 mi West 21.9 mph 34.5 mph N/A   Scattered Clouds
2:53 PM 42.1 °F 32.8 °F 21.9 °F 45% 29.67 in 10.0 mi West 21.9 mph 31.1 mph N/A   Overcast
3:53 PM 39.9 °F 31.1 °F 21.9 °F 49% 29.69 in 10.0 mi West 17.3 mph 33.4 mph N/A   Overcast
4:53 PM 39.9 °F 30.2 °F 21.9 °F 49% 29.71 in 10.0 mi West 20.7 mph 29.9 mph N/A   Mostly Cloudy
5:53 PM 39.0 °F 34.8 °F 23.0 °F 53% 29.73 in 10.0 mi WNW 5.8 mph 20.7 mph N/A   Overcast
6:53 PM 37.0 °F 29.8 °F 23.0 °F 57% 29.76 in 10.0 mi NW 10.4 mph 17.3 mph N/A   Mostly Cloudy
7:53 PM 36.0 °F 29.6 °F 21.0 °F 55% 29.79 in 10.0 mi NW 8.1 mph 16.1 mph N/A   Mostly Cloudy
8:53 PM 34.0 °F 27.2 °F 19.0 °F 54% 29.80 in 10.0 mi WNW 8.1 mph 16.1 mph N/A   Partly Cloudy
9:53 PM 33.1 °F 27.7 °F 18.0 °F 54% 29.81 in 10.0 mi WNW 5.8 mph - N/A   Overcast
10:53 PM 32.0 °F 26.4 °F 18.0 °F 56% 29.81 in 10.0 mi WSW 5.8 mph - N/A   Overcast
11:53 PM 32.0 °F 25.6 °F 18.0 °F 56% 29.80 in 10.0 mi WSW 6.9 mph - N/A   Overcast